[[{"header":{"parameterUnit":"m.s-1","parameterCategory":1,"la1":30.2991,"la2":30.254,"lo1":-89.0895,"lo2":-89.0444,"dy":0.0017,"dx":0.0017,"nx":28,"ny":28,"refTime":"2024-09-02T21:00:00:Z","depth":0,"parameterNumber":2,"parameterNumberName":"U-component_of_WINDS"},"data":[0,0,0,0,0,0,0,0,0,0,0,0,0,0,0,0,0,0,0,0,0,0,0,0,0,0,0,0,0,0,0,0,0,0,0,0,0,0,0,0,0,0,0,0,0,0,0,0,0,0,0,0,0,0,0,0,0,0,-2.3763,-2.3763,0,-2.3716,-2.3716,-2.3715,-2.3654,-2.3653,-2.3652,-2.3651,-2.3601,-2.36,-2.36,0,0,0,0,0,0,0,0,0,0,0,0,0,-2.3801,-2.38,-2.3763,-2.3763,-2.3762,-2.3716,-2.3716,-2.3715,-2.3655,-2.3653,-2.3652,-2.3651,-2.3601,-2.3601,-2.36,0,0,0,0,0,0,0,0,0,0,0,0,0,-2.3772,-2.38,-2.3764,-2.3727,-2.3723,-2.3717,-2.3716,-2.3715,-2.3655,-2.3653,-2.3652,-2.365,-2.3601,-2.3601,-2.36,-2.3625,0,0,-2.3598,-2.3598,0,0,0,0,0,0,0,0,-2.3774,-2.3771,-2.3733,-2.3729,-2.3725,-2.369,-2.371,-2.3685,-2.3655,-2.3681,-2.3651,-2.365,-2.3632,-2.3628,-2.3623,-2.3623,-2.3621,-2.3598,-2.3598,-2.3597,-2.3597,0,0,0,0,0,0,0,-2.3776,-2.3772,-2.3745,-2.3732,-2.3727,-2.3712,-2.3707,-2.3705,-2.3665,-2.3678,-2.3674,-2.3669,-2.3629,-2.3623,-2.3621,-2.362,-2.3598,-2.3597,-2.3597,-2.3597,-2.3641,-2.3642,0,0,0,0,0,0,-2.3783,-2.3774,-2.3746,-2.3743,-2.3746,-2.3713,-2.3706,-2.3702,-2.3665,-2.3658,-2.367,-2.3666,-2.3625,-2.3622,-2.3619,-2.3647,-2.3597,-2.3597,-2.3596,-2.3639,-2.3641,-2.3643,0,0,0,0,0,0,-2.3785,-2.3782,-2.3748,-2.3758,-2.3752,-2.3714,-2.371,-2.3702,-2.3696,-2.3659,-2.3651,-2.3672,-2.3624,-2.362,-2.3625,-2.3644,-2.3596,-2.3596,-2.3638,-2.364,-2.3642,-2.3703,0,0,0,0,0,0,-2.3786,-2.3782,-2.3791,-2.3758,-2.3752,-2.3755,-2.3711,-2.3702,-2.3696,-2.369,-2.3658,-2.3651,-2.3622,-2.3626,-2.3624,-2.3642,-2.3595,-2.3636,-2.3639,-2.3641,-2.3699,-2.3707,-2.3714,0,0,0,0,0,-2.3787,-2.3809,-2.3792,-2.3789,-2.3763,-2.3756,-2.3752,-2.3719,-2.3698,-2.3707,-2.3683,-2.3652,-2.3643,-2.3627,-2.3624,-2.3643,-2.3634,-2.3638,-2.3641,-2.3695,-2.3705,-2.3714,0,0,0,0,0,0,-2.3844,-2.3804,-2.3785,-2.3797,-2.3781,-2.3746,-2.3756,-2.3731,-2.3719,-2.3714,-2.3673,-2.3666,-2.3677,-2.366,-2.3643,-2.3667,-2.3634,-2.3637,-2.3676,-2.3685,-2.3693,-2.3696,-2.3595,0,0,0,0,0,-2.3859,-2.3857,-2.3822,-2.3836,-2.3829,-2.3795,-2.379,-2.3766,-2.3747,-2.374,-2.3716,-2.3699,-2.3692,-2.3688,-2.3679,-2.3697,-2.3689,-2.3709,-2.3716,-2.3723,-2.3725,-2.3734,-2.3743,-2.3655,-2.3655,-2.3654,0,0,-2.3887,-2.3865,-2.3866,-2.3847,-2.3831,-2.3831,-2.3789,-2.3789,-2.3788,-2.374,-2.3743,-2.3726,-2.3704,-2.3715,-2.3719,-2.3702,-2.3748,-2.3727,-2.3732,-2.3731,-2.3739,-2.3747,-2.3755,-2.3657,-2.3657,-2.3656,0,0,-2.3939,-2.3922,-2.3933,-2.3919,-2.3897,-2.3874,-2.3877,-2.3847,-2.3834,-2.3837,-2.3801,-2.38,-2.3788,-2.3774,-2.3766,-2.3816,-2.3788,-2.3815,-2.3853,-2.3863,-2.387,-2.3875,-2.3894,-2.3901,-2.3818,-2.3818,-2.3818,0,-2.3977,-2.3975,-2.3941,-2.3945,-2.3937,-2.3896,-2.3906,-2.3894,-2.387,-2.3866,-2.3848,-2.3834,-2.3816,-2.3825,-2.3838,-2.3832,-2.3834,-2.3817,-2.3871,-2.3877,-2.3882,-2.3899,-2.3906,-2.3821,-2.3821,-2.3821,-2.382,0,-2.4023,-2.4022,-2.4033,-2.4013,-2.4007,-2.4014,-2.3982,-2.398,-2.3958,-2.3937,-2.3942,-2.392,-2.3907,-2.3907,-2.3885,-2.3913,-2.3903,-2.3879,-2.3845,-2.3894,-2.3909,-2.3916,-2.3826,-2.3825,-2.3824,-2.3823,0,0,-2.4106,-2.407,-2.4074,-2.4065,-2.4039,-2.4038,-2.4044,-2.4032,-2.4032,-2.4017,-2.4021,-2.4015,-2.3993,-2.3983,-2.3959,-2.3968,-2.401,-2.3942,-2.3941,-2.3955,-2.404,-2.4059,-2.4066,-2.3992,-2.3993,-2.3994,-2.4042,0,-2.4153,-2.4161,-2.4132,-2.4147,-2.4147,-2.4109,-2.4114,-2.4099,-2.408,-2.4077,-2.4057,-2.4053,-2.4024,-2.4018,-2.4025,-2.4003,-2.4026,-2.3999,-2.3995,-2.3995,-2.4,-2.4074,-2.4093,-2.4139,-2.4048,-2.4049,-2.405,0,-2.4207,-2.4198,-2.4214,-2.4189,-2.4187,-2.4192,-2.418,-2.4178,-2.4161,-2.4147,-2.4138,-2.4111,-2.4116,-2.4085,-2.4091,-2.4074,-2.4071,-2.406,-2.4061,-2.4058,-2.4024,-2.4073,-2.4153,-2.416,-2.4059,-2.4058,-2.4057,0,-2.4267,-2.4258,-2.4266,-2.426,-2.4231,-2.4236,-2.4224,-2.4205,-2.4201,-2.419,-2.4187,-2.4178,-2.4172,-2.4166,-2.4137,-2.4118,-2.4147,-2.4114,-2.4135,-2.4136,-2.4141,-2.4141,-2.4222,-2.4141,-2.4141,-2.4141,-2.4141,0,-2.4321,-2.4332,-2.4293,-2.4298,-2.431,-2.4277,-2.429,-2.4274,-2.4258,-2.426,-2.4227,-2.4229,-2.4192,-2.419,-2.4168,-2.4177,-2.4174,-2.4164,-2.4157,-2.4166,-2.4167,-2.4162,-2.4158,-2.4143,-2.4142,-2.4142,-2.4142,0,-2.4389,-2.4363,-2.437,-2.4343,-2.4336,-2.4346,-2.4323,-2.4327,-2.4308,-2.431,-2.4309,-2.4279,-2.4276,-2.4247,-2.4237,-2.4222,-2.4239,-2.4227,-2.4245,-2.4241,-2.4264,-2.4262,-2.4343,-2.4353,-2.4267,-2.4268,-2.4269,0,-2.4425,-2.4432,-2.4407,-2.4406,-2.4396,-2.4395,-2.4391,-2.436,-2.4358,-2.434,-2.4346,-2.4341,-2.4334,-2.4331,-2.4308,-2.43,-2.4287,-2.4317,-2.4286,-2.4295,-2.4288,-2.4287,-2.4288,-2.4322,-2.4324,-2.4324,-2.4325,0,-2.4491,-2.4479,-2.4474,-2.4466,-2.4463,-2.4455,-2.4445,-2.4446,-2.4412,-2.4411,-2.4407,-2.4403,-2.4394,-2.4389,-2.4378,-2.4365,-2.434,-2.4336,-2.434,-2.4348,-2.4359,-2.4353,-2.4262,-2.4333,-2.4332,-2.4332,-2.4331,-2.4331,-2.4544,-2.4549,-2.4533,-2.453,-2.4519,-2.4511,-2.4514,-2.4496,-2.4493,-2.4484,-2.4466,-2.4466,-2.445,-2.4433,-2.4424,-2.4423,-2.4408,-2.4414,-2.4416,-2.4418,-2.4423,-2.436,-2.4421,-2.4421,-2.4421,-2.442,-2.442,0,-2.4608,-2.4597,-2.4594,-2.4582,-2.458,-2.4558,-2.4546,-2.4546,-2.4546,-2.4534,-2.4529,-2.4526,-2.4522,-2.45,-2.4493,-2.4497,-2.4485,-2.4496,-2.4495,-2.4493,-2.4437,-2.4433,-2.4506,-2.4506,-2.4506,-2.4506,-2.4506,-2.4506,-2.4642,-2.4651,-2.4637,-2.4641,-2.4629,-2.4629,-2.4624,-2.4617,-2.4607,-2.4606,-2.4602,-2.4589,-2.4573,-2.4565,-2.456,-2.4554,-2.4553,-2.4568,-2.4558,-2.4505,-2.4497,-2.4489,-2.4485,-2.4568,-2.4568,-2.4614,-2.4614,-2.4615]},{"header":{"parameterUnit":"m.s-1","parameterCategory":1,"la1":30.2991,"la2":30.254,"lo1":-89.0895,"lo2":-89.0444,"dy":0.0017,"dx":0.0017,"nx":28,"ny":28,"refTime":"2024-09-02T21:00:00:Z","depth":0,"parameterNumber":3,"parameterNumberName":"V-component_of_WINDS"},"data":[0,0,0,0,0,0,0,0,0,0,0,0,0,0,0,0,0,0,0,0,0,0,0,0,0,0,0,0,0,0,0,0,0,0,0,0,0,0,0,0,0,0,0,0,0,0,0,0,0,0,0,0,0,0,0,0,0,0,2.0086,2.0086,0,2.005,2.005,2.005,2.0019,2.0018,2.0018,2.0018,1.9978,1.9977,1.9976,0,0,0,0,0,0,0,0,0,0,0,0,0,2.0127,2.0126,2.0086,2.0086,2.0086,2.0051,2.005,2.005,2.0019,2.0018,2.0018,2.0017,1.9978,1.9977,1.9976,0,0,0,0,0,0,0,0,0,0,0,0,0,2.0102,2.0126,2.0087,2.0066,2.0064,2.0051,2.005,2.0049,2.0019,2.0018,2.0018,2.0017,1.9978,1.9977,1.9976,1.998,0,0,1.9973,1.9972,0,0,0,0,0,0,0,0,2.0103,2.01,2.0069,2.0067,2.0065,2.0039,2.005,2.0026,2.0019,2.0036,2.0018,2.0017,1.9998,1.9995,1.999,1.9978,1.9976,1.9973,1.9972,1.9971,1.9971,0,0,0,0,0,0,0,2.0105,2.0102,2.0072,2.0069,2.0066,2.0058,2.0054,2.0045,2.002,2.0034,2.0032,2.0028,1.9997,1.9991,1.9989,1.9975,1.9973,1.9972,1.9971,1.9971,1.9965,1.9966,0,0,0,0,0,0,2.011,2.0103,2.0073,2.0071,2.0083,2.0058,2.0053,2.0047,2.002,2.0016,2.0029,2.0027,1.9993,1.999,1.9987,1.9989,1.9971,1.997,1.997,1.9965,1.9965,1.9966,0,0,0,0,0,0,2.0111,2.0108,2.0075,2.0087,2.0082,2.0058,2.0051,2.0047,2.0041,2.0016,2.0011,2.0027,1.9992,1.9989,1.9982,1.9988,1.997,1.9969,1.9964,1.9965,1.9966,1.9994,0,0,0,0,0,0,2.0112,2.0108,2.011,2.0087,2.0081,2.0071,2.0052,2.0047,2.004,2.0037,2.0013,2.0009,1.9992,1.9984,1.9981,1.9986,1.9968,1.9963,1.9964,1.9965,1.9992,1.9996,1.9999,0,0,0,0,0,2.0114,2.0118,2.011,2.0106,2.0083,2.0071,2.0068,2.0049,2.004,2.0041,2.0025,2.001,1.9988,1.9983,1.998,1.9984,1.9963,1.9964,1.9965,1.9991,1.9995,1.9998,0,0,0,0,0,0,2.0141,2.0115,2.0105,2.0102,2.009,2.0066,2.0066,2.0053,2.0042,2.004,2.0016,2.0011,2.0007,1.9995,1.9991,1.9987,1.9973,1.9974,1.9994,1.9998,2.0001,2.0003,1.9967,0,0,0,0,0,2.0147,2.0141,2.0118,2.0118,2.0112,2.0091,2.0085,2.0072,2.0057,2.0051,2.0034,2.002,2.001,2.0003,1.9992,1.9991,1.9986,1.9993,1.9996,1.9998,1.9999,1.9997,2.0,1.997,1.997,1.997,0,0,2.0158,2.0143,2.014,2.0123,2.0111,2.0105,2.0086,2.0079,2.0074,2.0049,2.0042,2.003,2.0012,2.0009,2.0006,1.9999,2.0006,2.0,2.0002,2.0001,1.9999,2.0002,2.0005,1.997,1.997,1.997,0,0,2.0176,2.0164,2.0163,2.0152,2.0135,2.0121,2.0121,2.01,2.0091,2.0084,2.0066,2.0059,2.0042,2.0031,2.0022,2.0038,2.0023,2.0035,2.005,2.0049,2.0052,2.0054,2.0059,2.0061,2.0036,2.0036,2.0036,0,2.0191,2.0182,2.0163,2.0159,2.0151,2.013,2.0129,2.0119,2.0099,2.0094,2.0087,2.0066,2.0052,2.0046,2.005,2.0044,2.0043,2.0037,2.0053,2.0055,2.0056,2.0061,2.0063,2.0037,2.0037,2.0037,2.0037,0,2.0202,2.0196,2.0197,2.018,2.0173,2.0169,2.015,2.0145,2.0133,2.012,2.0114,2.0097,2.0083,2.0081,2.0068,2.0073,2.0069,2.0058,2.0043,2.0061,2.0065,2.0067,2.0039,2.0039,2.0038,2.0038,0,0,2.0233,2.0208,2.0208,2.0201,2.0182,2.0176,2.0172,2.016,2.0156,2.0144,2.0139,2.0127,2.0117,2.0107,2.0094,2.0093,2.0107,2.0082,2.0081,2.0087,2.011,2.0118,2.0121,2.0097,2.0098,2.0098,2.0112,0,2.0247,2.024,2.0224,2.0221,2.0215,2.0196,2.0193,2.018,2.0169,2.0161,2.0148,2.0139,2.0127,2.0121,2.012,2.0105,2.0111,2.0104,2.0092,2.0092,2.0097,2.0123,2.0131,2.0145,2.0113,2.0113,2.0114,0,2.0261,2.0252,2.0249,2.0231,2.0228,2.0226,2.0213,2.0207,2.0193,2.0184,2.0175,2.0161,2.0156,2.0144,2.0136,2.0132,2.0127,2.0119,2.0119,2.0116,2.0103,2.012,2.0148,2.015,2.0116,2.0116,2.0116,0,2.0284,2.027,2.0267,2.0261,2.0241,2.0239,2.023,2.0216,2.021,2.0199,2.0195,2.0184,2.0177,2.0169,2.0151,2.0145,2.0146,2.0132,2.0138,2.0138,2.0138,2.0138,2.0165,2.0136,2.0136,2.0136,2.0136,0,2.0301,2.0299,2.0277,2.0275,2.0273,2.0255,2.0254,2.0243,2.0231,2.0226,2.0209,2.0205,2.0183,2.0176,2.0163,2.0158,2.0156,2.0148,2.0144,2.0149,2.015,2.0144,2.0143,2.0136,2.0136,2.0136,2.0136,0,2.0325,2.031,2.0305,2.0287,2.0282,2.0282,2.0266,2.0263,2.0251,2.0245,2.0243,2.0224,2.0215,2.0198,2.0183,2.0174,2.0173,2.0167,2.0178,2.0175,2.0182,2.0181,2.0205,2.0208,2.0178,2.0178,2.0179,0,2.0336,2.0335,2.0317,2.0313,2.0306,2.0299,2.0293,2.0276,2.0271,2.0256,2.0255,2.0245,2.0236,2.0223,2.0207,2.0197,2.019,2.0199,2.0188,2.0193,2.0189,2.0189,2.0189,2.0201,2.0201,2.0202,2.0202,0,2.0357,2.035,2.0343,2.0333,2.0327,2.0319,2.0309,2.0307,2.0287,2.0282,2.0274,2.0267,2.0254,2.0244,2.0231,2.0222,2.0209,2.0206,2.0207,2.0211,2.0217,2.0214,2.0184,2.0205,2.0205,2.0205,2.0204,2.0204,2.0374,2.0373,2.0361,2.0353,2.0345,2.0337,2.0333,2.0322,2.0315,2.0303,2.0293,2.0286,2.0273,2.0255,2.0246,2.024,2.0233,2.0234,2.0234,2.0234,2.0236,2.022,2.0237,2.0237,2.0237,2.0237,2.0237,0,2.0394,2.0386,2.038,2.0367,2.0362,2.0352,2.0341,2.0337,2.0331,2.032,2.0312,2.0303,2.0294,2.0279,2.0268,2.0266,2.026,2.0264,2.0263,2.0261,2.0243,2.0243,2.0269,2.0269,2.0269,2.0269,2.0269,2.0269,2.0404,2.0401,2.0393,2.0385,2.0377,2.037,2.0365,2.0357,2.0349,2.0339,2.0332,2.0323,2.031,2.0299,2.0291,2.0286,2.0283,2.0289,2.0283,2.0265,2.0262,2.0259,2.026,2.0289,2.0289,2.0301,2.0301,2.0302]}]]